MDT,Max TemperatureF,Mean TemperatureF,Min TemperatureF,Max Dew PointF,MeanDew PointF,Min DewpointF,Max Humidity, Mean Humidity, Min Humidity, Max Sea Level PressureIn, Mean Sea Level PressureIn, Min Sea Level PressureIn, Max VisibilityMiles, Mean VisibilityMiles, Min VisibilityMiles, Max Wind SpeedMPH, Mean Wind SpeedMPH, Max Gust SpeedMPH,PrecipitationIn, CloudCover, Events, WindDirDegrees
2012-5-1,49,39,29,32,21,13,96,61,25,29.76,29.70,29.66,,,,7,3,,0.00,,,227
2012-5-2,46,36,26,28,17,7,92,57,22,29.84,29.76,29.64,,,,15,4,26,0.01,,,224
2012-5-3,44,38,31,36,32,20,96,74,52,29.88,29.77,29.67,,,,17,5,26,0.21,,,144
2012-5-4,50,39,28,36,31,25,100,70,39,30.04,29.90,29.80,,,,17,4,28,0.10,,,194
2012-5-5,42,32,21,27,20,16,92,66,39,30.31,30.18,30.03,,,,17,4,26,0.00,,,318
2012-5-6,52,34,16,21,15,4,92,54,15,30.35,30.29,30.23,,,,13,3,18,0.00,,,303
2012-5-7,62,40,17,20,14,6,84,48,11,30.35,30.24,30.12,,,,13,3,20,0.00,,,336
2012-5-8,67,44,21,30,21,13,84,48,12,30.20,30.09,29.97,,,,12,3,18,0.00,,,88
2012-5-9,69,47,25,32,27,23,85,53,20,29.99,29.88,29.73,,,,13,4,22,0.00,,,205
2012-5-10,52,39,25,37,18,-2,82,48,13,30.03,29.90,29.70,,,,16,6,24,0.00,,,336
2012-5-11,57,37,17,19,15,11,80,48,16,30.13,30.09,30.04,,,,13,3,22,0.00,,,313
2012-5-12,64,42,19,23,15,-2,84,47,9,30.24,30.19,30.15,,,,12,4,16,0.00,,,252
2012-5-13,71,46,20,26,19,10,84,47,10,30.33,30.23,30.13,,,,13,2,18,0.00,,,131
2012-5-14,77,50,23,30,24,19,88,50,12,30.24,30.10,29.97,,,,12,2,23,0.00,,,124
2012-5-15,77,53,28,36,28,18,92,52,11,30.04,29.95,29.89,,,,16,3,28,0.00,,,165
2012-5-16,73,52,30,32,28,21,92,54,15,29.94,29.87,29.70,,,,13,2,22,0.00,,,171
2012-5-17,50,40,31,35,31,28,85,72,58,29.94,29.80,29.69,,,,9,1,,0.00,,,349
2012-5-18,57,44,30,34,26,13,82,50,18,29.91,29.78,29.73,,,,14,5,21,0.00,,,322
2012-5-19,60,41,21,26,21,18,92,57,22,30.04,29.99,29.93,,,,14,3,28,0.00,,,249
2012-5-20,68,49,30,35,29,23,75,51,26,30.10,30.04,30.00,,,,14,3,20,0.00,,,239
2012-5-21,74,53,31,44,34,29,93,57,20,30.05,29.90,29.74,,,,17,4,28,0.01,,,215
2012-5-22,55,45,34,43,36,29,100,71,41,29.78,29.74,29.70,,,,18,5,32,0.44,,,296
2012-5-23,45,37,28,34,29,23,100,73,45,29.81,29.75,29.70,,,,17,5,25,0.02,,,337
2012-5-24,46,35,23,34,27,21,96,68,40,29.81,29.70,29.58,,,,14,2,20,0.13,,,306
2012-5-25,47,38,29,36,31,29,100,79,58,29.69,29.57,29.51,,,,12,2,15,0.23,,,342
2012-5-26,42,35,27,35,31,26,100,83,65,29.68,29.63,29.57,,,,10,2,16,0.47,,,334
2012-5-27,45,39,32,35,32,30,100,79,58,30.01,29.84,29.67,,,,14,5,22,0.14,,,349
2012-5-28,56,43,29,34,30,27,100,68,35,30.07,30.01,29.97,,,,12,3,17,0.00,,,101
2012-5-29,63,44,25,34,29,24,92,60,28,30.01,29.97,29.90,,,,13,3,20,0.00,,,284
2012-5-30,65,47,28,37,31,26,92,62,31,30.10,30.05,29.98,,,,14,4,21,0.00,,,305
2012-5-31,68,50,31,42,35,30,100,66,31,30.14,30.07,29.99,,,,16,4,30,0.00,,,281